Weather History for Rome, NY

Change the Weather History Date:

Thursday, December 20, 2012

  Actual Average Record
Temperature  
Mean Temperature 28 °F -  
Max Temperature 36 °F 30 °F 54 °F (1988)
Min Temperature 19 °F 16 °F -8 °F (1980)
Degree Days  
Heating Degree Days 38    
Moisture  
Dew Point 25 °F    
Average Humidity 77    
Maximum Humidity 96    
Minimum Humidity 62    
Precipitation  
Precipitation 0.02 in - - ()
Sea Level Pressure  
Sea Level Pressure 30.04 in    
Wind  
Wind Speed 7 mph (ESE)    
Max Wind Speed 22 mph    
Max Gust Speed 36 mph    
Visibility 10 miles    
Events Rain    
Averages and records for this station are not official NWS values.
T = Trace of Precipitation, MM = Missing Value Source: NWS Daily Summary

Daily Weather History Graph

Daily Weather History Graph

Search for Another Location

Airport:

Trip Planner

Search our weather history database for the weather conditions in past years. The results will help you decide how hot, cold, wet, or windy it might be!

Date:

Astronomy

Dec. 20, 2012 Rise Set
Actual Time 7:30 AM EST 4:28 PM EST
Civil Twilight 6:57 AM EST 5:01 PM EST
Nautical Twilight 6:21 AM EST 5:37 PM EST
Astronomical Twilight 5:46 AM EST 6:12 PM EST
Moon 11:53 AM EST (12/20) 12:05 AM EST (12/20)
Length of Visible Light 10h 03m
Length of Day
8h 58m
First Quarter, 55% of the Moon is Illuminated
Dec 20
First Quarter
Dec 28
Full
Jan 4
Last Quarter
Jan 11
New
Jan 18
First Quarter

Hourly Weather History & Observations

Time (EST) Temp. Windchill Dew Point Humidity Pressure Visibility Wind Dir Wind Speed Gust Speed Precip Events Conditions
12:53 AM 27.0 °F 21.6 °F 21.0 °F 78% 30.22 in 10.0 mi NW 4.6 mph - N/A   Clear
1:53 AM 28.9 °F - 21.0 °F 72% 30.22 in 10.0 mi Calm Calm - N/A   Clear
2:53 AM 26.1 °F - 21.9 °F 84% 30.23 in 10.0 mi Calm Calm - N/A   Clear
3:53 AM 24.1 °F - 21.0 °F 88% 30.22 in 10.0 mi Calm Calm - N/A   Clear
4:53 AM 21.9 °F - 19.0 °F 89% 30.25 in 10.0 mi Calm Calm - N/A   Clear
5:53 AM 19.9 °F - 18.0 °F 92% 30.24 in 10.0 mi Calm Calm - N/A   Clear
6:53 AM 21.9 °F - 19.9 °F 92% 30.25 in 10.0 mi Calm Calm - N/A   Clear
7:53 AM 21.0 °F 16.2 °F 19.9 °F 96% 30.25 in 10.0 mi ESE 3.5 mph - N/A   Clear
8:53 AM 26.1 °F 20.5 °F 23.0 °F 88% 30.24 in 10.0 mi East 4.6 mph - N/A   Clear
9:53 AM 30.0 °F 23.2 °F 23.0 °F 75% 30.22 in 10.0 mi ESE 6.9 mph - N/A   Clear
10:53 AM 33.1 °F 25.5 °F 23.0 °F 66% 30.19 in 10.0 mi East 9.2 mph - N/A   Clear
11:53 AM 36.0 °F 28.0 °F 24.1 °F 62% 30.12 in 10.0 mi ESE 11.5 mph - N/A   Clear
12:53 PM 36.0 °F 27.5 °F 24.1 °F 62% 30.08 in 10.0 mi ESE 12.7 mph - N/A   Clear
1:53 PM 36.0 °F 27.5 °F 24.1 °F 62% 30.04 in 10.0 mi ESE 12.7 mph - N/A   Clear
2:53 PM 36.0 °F 27.5 °F 25.0 °F 64% 30.04 in 10.0 mi ESE 12.7 mph - N/A   Clear
3:53 PM 36.0 °F 28.5 °F 25.0 °F 64% 29.98 in 10.0 mi ESE 10.4 mph - N/A   Clear
4:53 PM 36.0 °F 27.1 °F 25.0 °F 64% 29.94 in 10.0 mi East 13.8 mph - N/A   Clear
5:53 PM 36.0 °F 27.1 °F 25.0 °F 64% 29.94 in 10.0 mi ESE 13.8 mph 21.9 mph N/A   Clear
6:53 PM 36.0 °F 26.3 °F 26.1 °F 67% 29.95 in 10.0 mi ESE 16.1 mph 23.0 mph N/A   Mostly Cloudy
7:53 PM 36.0 °F 25.3 °F 27.0 °F 70% 29.87 in 10.0 mi ESE 19.6 mph 32.2 mph 0.00 in Rain Light Rain
8:53 PM 35.1 °F 25.9 °F 28.9 °F 78% 29.86 in 8.0 mi ESE 13.8 mph - 0.00 in Rain Light Rain
9:53 PM 35.1 °F 23.5 °F 28.9 °F 78% 29.80 in 10.0 mi ESE 21.9 mph 35.7 mph 0.01 in   Overcast
10:53 PM 36.0 °F 25.3 °F 30.9 °F 82% 29.75 in 10.0 mi ESE 19.6 mph 26.5 mph 0.00 in Rain Light Rain
11:04 PM 36.0 °F 25.3 °F 32.0 °F 86% 29.73 in 10.0 mi ESE 19.6 mph - 0.00 in Rain Light Rain
11:23 PM 35.1 °F 23.5 °F 32.0 °F 89% 29.71 in 10.0 mi ESE 21.9 mph 29.9 mph 0.00 in Rain Light Rain
11:53 PM 36.0 °F 24.7 °F 32.0 °F 86% 29.70 in 9.0 mi ESE 21.9 mph 34.5 mph 0.01 in Rain Light Rain